Dewpoint
69 70 69 69 70 71 70 68 70 69 66 66 64 66 71 70 71 71 70 69 69 69 69 70 69 69 68 69 69 70 69 67 64 65 67 68 67 68 70 70 71 70 70
69 70 69 69 71 70 70 71 72 69 68 66 65 70 70 71 71 71 70 71 69 69 69 70 68 70 69 70 69 68 69 69 67 65 67 68 67 70 71 71 70 71 71
70 70 70 69 70 70 69 70 71 68 67 67 71 71 71 72 71 71 71 71 71 70 70 69 68 69 70 69 69 68 69 70 68 68 67 68 67 70 70 71 71 71 70
69 70 70 69 70 69 70 70 70 70 70 70 72 71 71 71 70 71 71 71 71 70 71 70 70 70 69 69 69 69 70 69 68 67 67 68 68 70 70 70 68 69 70
67 67 68 69 69 69 70 69 70 71 71 71 70 68 67 66 66 68 70 70 70 67 70 68 66 67 66 66 70 68 68 68 68 67 67 67 68 68 68 70 68 69 70
67 68 69 69 69 69 69 70 70 70 70 69 66 64 62 64 62 61 66 67 68 68 68 66 63 61 63 64 65 66 66 67 66 67 67 66 66 66 67 67 67 67 66
68 68 69 68 68 68 68 68 68 69 67 63 59 57 55 56 57 57 63 68 68 66 67 63 59 59 60 64 64 64 61 63 66 65 63 63 63 64 64 64 65 66 66
68 68 67 66 66 66 67 68 68 68 64 62 59 57 55 55 56 57 63 66 65 63 60 57 55 54 58 60 54 51 52 53 56 57 59 61 63 64 64 65 65 64 64
67 67 66 66 66 66 64 63 61 62 61 59 56 54 53 54 55 61 63 62 58 55 53 50 48 49 55 58 52 49 50 53 56 59 61 60 58 58 60 57 59 58 56
66 66 66 66 65 65 64 62 60 58 55 54 52 49 48 47 54 59 61 59 53 48 47 48 53 50 52 53 52 49 52 52 55 53 52 52 52 51 54 51 52 50 54
65 66 66 66 66 65 65 61 59 57 54 52 51 51 49 46 48 54 58 60 57 49 43 45 47 52 51 51 52 52 53 54 53 50 48 48 48 48 47 47 48 50 51
63 63 64 64 64 63 61 59 57 54 50 47 44 42 40 42 48 49 50 54 50 47 44 45 50 50 49 49 49 50 50 49 47 47 46 47 46 45 46 47 45 47 51
59 56 55 55 54 57 59 59 58 55 53 52 47 44 42 39 39 47 48 51 51 48 50 51 50 48 47 47 50 50 47 44 43 43 43 44 45 43 43 43 42 43 45
53 51 49 46 47 48 42 41 43 46 55 56 50 44 37 31 33 37 39 40 43 42 47 49 49 49 49 47 45 46 44 43 42 42 42 42 42 40 40 40 39 40 41
54 51 46 42 40 36 39 44 39 38 40 49 51 43 34 26 32 37 37 36 36 40 44 41 41 41 41 42 42 42 41 41 41 41 40 39 38 38 38 39 38 37 36
56 54 52 50 46 43 41 40 41 41 41 40 38 40 34 36 38 37 37 38 39 42 40 39 41 42 42 41 41 41 40 41 41 40 39 39 38 37 36 35 35 35 35
52 53 53 50 46 43 41 37 39 40 40 38 39 38 36 37 37 37 37 38 40 43 42 42 41 41 40 40 39 38 38 39 38 38 37 37 36 36 35 35 35 35 34
49 50 53 51 46 42 40 36 34 34 38 37 38 36 37 36 36 36 37 40 39 40 41 41 41 40 39 38 38 38 38 38 37 37 37 36 36 35 34 34 35 35 34
39 41 44 49 45 42 39 34 34 33 29 30 31 34 35 36 36 36 39 38 37 39 40 39 40 39 39 39 39 39 38 37 36 36 36 35 35 35 34 35 34 35 34
38 47 44 39 42 42 41 36 36 35 31 30 30 31 34 36 38 41 41 40 40 39 39 40 40 40 40 39 38 38 37 36 35 35 34 34 34 34 34 34 33 33 33
41 37 44 36 37 39 40 39 38 39 37 34 33 36 38 36 39 41 39 40 41 40 39 39 41 40 39 38 38 38 37 36 35 34 34 33 33 33 33 33 33 33 33
40 37 35 35 36 35 38 37 39 41 41 41 39 39 40 39 39 43 40 40 40 40 40 40 40 39 38 38 37 36 36 35 35 34 34 33 33 33 33 32 33 33 33
43 40 36 34 35 39 37 36 35 37 39 38 36 33 34 33 37 41 40 40 41 40 40 39 40 39 39 39 38 37 36 36 35 35 34 33 33 32 32 32 33 33 33
43 39 38 35 35 35 37 38 37 38 37 38 33 29 28 29 35 40 40 41 41 41 41 41 40 39 39 39 38 38 37 37 36 35 34 33 32 33 33 33 33 33 34
43 40 39 37 35 35 36 38 37 37 37 37 39 35 33 35 36 39 39 40 40 41 40 40 40 39 38 38 37 37 36 35 36 35 34 33 33 34 34 33 34 34 34
42 41 40 41 41 39 37 38 40 39 38 37 39 40 39 38 39 40 40 39 40 39 40 40 40 38 38 37 36 35 32 33 35 33 34 34 33 32 32 32 33 34 34
Lifted_Index
-3 -3 -3 -3 -3 -3 -3 -3 -3 -3 -3 -2 -2 -3 -3 -3 -4 -4 -4 -3 -3 -3 -3 -3 -3 -3 -3 -3 -3 -3 -3 -3 -3 -2 -3 -3 -3 -3 -3 -3 -3 -3 -3
-3 -3 -3 -3 -3 -3 -3 -3 -3 -3 -3 -2 -2 -3 -3 -3 -4 -4 -4 -4 -3 -3 -3 -3 -3 -3 -3 -3 -3 -3 -3 -3 -2 -2 -2 -3 -3 -3 -3 -3 -3 -3 -3
-3 -3 -3 -3 -3 -3 -3 -3 -3 -3 -3 -2 -2 -3 -3 -3 -4 -4 -4 -4 -4 -4 -4 -3 -3 -3 -3 -3 -3 -3 -3 -2 -2 -2 -2 -2 -3 -3 -3 -3 -3 -3 -3
-3 -3 -3 -3 -2 -2 -3 -3 -3 -3 -3 -3 -3 -3 -3 -4 -4 -4 -4 -4 -4 -4 -3 -3 -3 -3 -3 -3 -3 -3 -3 -2 -2 -2 -2 -2 -3 -3 -3 -3 -2 -2 -3
-3 -3 -3 -3 -2 -2 -2 -3 -3 -3 -3 -3 -3 -3 -3 -3 -3 -3 -3 -3 -3 -3 -3 -3 -3 -3 -3 -3 -3 -3 -3 -3 -3 -3 -2 -2 -2 -2 -2 -2 -2 -2 -3
-2 -2 -2 -2 -2 -2 -2 -2 -2 -2 -2 -2 -2 -3 -3 -3 -2 -2 -2 -2 -2 -2 -2 -2 -2 -2 -2 -2 -2 -3 -3 -3 -3 -3 -2 -2 -1 -1 -2 -2 -2 -2 -2
-1 -1 -2 -2 -1 -1 -1 -1 -1 -2 -2 -2 -2 -2 -2 -2 -2 -2 -2 -2 -1 -1 -1 -1 -1 -1 -1 -1 -2 -2 -2 -2 -2 -2 -1 -1 -1 -1 -1 -1 -1 -1 -1
-1 -1 -1 -1 -1 -1 -1 -1 -1 -1 -1 -1 -1 -1 -1 -1 -1 -1 -1 -1 -1 -1 -1 -1 -1 -1 -1 -1 -0 -0 -0 0 0 0 0 -0 -1 -1 -0 0 0 1 2
-2 -2 -2 -1 -1 -1 -1 -0 -0 0 -0 -0 -1 -0 0 0 0 -0 -1 -1 -1 -1 -1 -1 -1 -0 -0 0 0 1 2 3 2 1 1 0 1 1 2 2 3 4 5
-2 -2 -1 -1 -1 -1 -1 -0 0 0 0 0 0 0 1 1 1 0 -0 -0 -0 0 0 0 1 1 1 2 2 3 4 4 3 2 1 2 2 3 4 5 6 7 8
-2 -2 -1 -1 -0 -1 -1 -0 1 1 1 1 1 1 2 2 1 1 0 0 1 1 1 1 2 3 3 4 5 5 6 5 4 3 3 3 4 5 6 8 9 10 10
-2 -2 -2 -1 -1 -1 -1 -1 0 1 1 2 2 2 2 2 2 2 1 1 1 2 2 3 3 4 5 6 7 7 7 6 6 6 5 6 7 8 10 12 13 13 13
-3 -3 -2 -2 -2 -2 -2 -1 -0 0 1 1 1 1 1 1 2 2 2 2 3 3 3 4 5 6 7 8 8 8 8 8 8 9 10 11 12 13 14 15 15 16 16
-2 -2 -2 -2 -1 -1 -1 -1 -0 0 0 1 1 1 2 2 3 3 4 5 5 5 6 6 7 8 9 10 11 11 11 12 12 13 14 15 15 16 16 16 17 16 16
-1 -1 -1 -1 -0 -0 -1 -0 0 1 1 1 2 3 3 5 6 7 8 8 8 9 9 10 10 11 11 12 13 14 14 15 15 16 16 16 16 16 16 17 17 16 16
1 1 2 2 2 2 1 1 1 2 3 3 4 5 6 8 10 12 12 11 11 11 11 12 12 13 13 14 15 15 16 16 16 16 16 16 16 16 16 17 17 17 16
4 5 5 5 6 6 5 4 4 4 5 5 6 7 9 11 13 14 13 12 12 11 11 12 13 14 14 15 15 15 16 16 17 17 17 17 17 17 17 17 17 17 17
6 6 6 7 8 9 9 9 8 8 8 9 9 11 13 14 15 14 13 12 12 12 12 13 13 14 15 15 16 16 16 17 17 18 18 18 18 18 17 17 17 17 17
7 7 7 7 8 10 11 11 11 11 11 12 13 14 15 16 15 14 13 13 13 13 13 13 14 14 15 16 16 16 16 17 17 18 18 18 18 18 18 18 18 18 17
7 8 8 8 8 9 10 11 11 11 12 13 14 15 16 15 14 14 13 13 13 13 14 14 14 15 16 16 16 16 17 17 17 17 18 18 18 18 18 18 18 17 17
8 8 9 8 9 9 9 10 10 10 11 11 12 13 14 14 13 13 13 13 13 13 13 14 14 15 16 16 16 16 16 16 17 17 17 17 17 17 17 17 17 17 17
8 9 9 9 9 9 9 9 9 9 9 10 10 11 12 12 12 12 12 12 12 12 13 13 14 14 14 15 15 15 15 15 15 16 16 16 17 17 17 17 16 16 16
8 8 9 9 9 9 9 9 9 9 9 9 9 9 10 10 10 10 10 10 10 11 11 11 12 12 12 12 13 13 13 14 14 14 15 15 16 16 16 16 15 15 15
7 7 8 8 8 8 9 8 8 8 8 8 8 8 8 8 8 9 9 9 9 9 9 9 10 10 10 10 11 11 11 12 12 12 13 13 14 15 15 15 14 13 13
6 6 6 6 6 7 7 7 7 7 8 8 8 7 7 7 7 7 7 7 7 7 7 8 8 8 8 9 9 9 9 10 10 10 11 11 12 13 14 14 13 12 12
5 5 5 5 5 6 6 6 6 6 7 7 7 7 7 7 6 6 6 6 6 6 6 7 7 7 7 8 8 8 9 9 9 10 10 10 10 12 13 13 12 11 11